SL-14 DEB, 45337

Orbit data source: Space-Track

SL-14 DEB, 45337 is space debris in LEO originally from a launch on Thu, 15 Aug 1991 UTC launched from the Plesetsk Missile And Space Complex (PKMTR). Debris objects in space refer to the collection of defunct objects orbiting the Earth. Examples of debris include non-operational satellites, rocket bodies, and fragments generated from explosions, collisions, or faulty payload assembly.

Loading next visibility...
Identifier
45337, 1991-056CB
Orbit
LEO
Country
Flag of CISCIS
Related business
Manufacturer
Unknown
Mission
Spacecraft
Bus & Motor
Unknown
Mass
Unknown
Launch date (UTC)
1991-08-15 (34 years ago)
Launch vehicle
Unknown
Launch site
Plesetsk Missile And Space Complex (PKMTR)
Object type
Payload
Rocket body
Debris
Shape & HBR
Unknown shape, 0.1 m
Radar Cross Section
Small (<0.1 m²)

Expand to show TLE details & history
Last TLE update: 1 day ago

TLE from 1 day ago
0 SL-14 DEB
1 45337U 91056CB  25286.12351648  .00000982  00000-0  26656-2 0  9992
2 45337  82.5785 331.2946 0044206 222.5126 137.2568 13.12895963268930
Epoch: 2025-10-13T02:57Z
TLE epoch observation values (Epoch: 2025-10-13T02:57:51.823Z)
Latitude
-0.00007°
Longitude
-95.10215°
Altitude
1,239.493 km
Speed
7.223 km/s
True Right ascension
22h 05m 10s
True Declination
0° 00' 00"
Sunlit
Object was in full shadow at epoch
Visualization orbit readout
Latitude
Unknown
Longitude
Unknown
Altitude
Unknown
Speed
Unknown
Apparent Right ascension
Unknown
Apparent Declination
Unknown
Sunlit
N/A
Visualization observer readout
Local Sidereal Time
02:52:10
Azimuth
Unknown
Elevation
Unknown
Doppler factor
Unknown
Orbital elements
Apogee altitude
1,242.767 km
Perigee altitude
1,175.686 km
Semi-major axis
7,587.363 km
Eccentricity
0.00442
Inclination
82.5785°
RAAN
331.2946°
Arg. of periapsis
222.5126°
True anomaly
137.59922°
Mean anomaly
137.2568°
Eccentric anomaly
137.42815°
Mean motion
3.28403 °/min
Orbital period
109.62 mins
BSTAR
0.0026656
Loading maneuver chart data...
Computing Atmospheric mass density...
Loading historical data...
Loading historical data...
Loading historical data...
Loading historical data...
Loading historical data...
Loading historical data...
Loading historical data...

Documentation

Showing up to 5 results
|